Regional Weather Roundup
Issued by NWS New Orleans/Baton Rouge, LA

Home | Current Version | Previous Version | Text Only | Print | Product List | Glossary On
Versions: 1 2 3 4 5 6 7 8 9 10 11 12 13 14 15 16 17 18 19 20 21 22 23 24 25 26 27 28 29 30 31 32 33 34 35 36 37 38 39 40 41 42 43 44 45 46 47 48 49 50
000
ASUS44 KLIX 052310
RWRLIX
NEW ORLEANS REGIONAL WEATHER ROUNDUP
NATIONAL WEATHER SERVICE NEW ORLEANS LA
500 PM CST THU MAR 05 2015

NOTE: "FAIR" INDICATES FEW OR NO CLOUDS BELOW 12,000 FEET WITH NO
      SIGNIFICANT WEATHER AND/OR OBSTRUCTIONS TO VISIBILITY.
      SKY/WX - SKY CONDITION AND SIGNIFICANT WEATHER.
      TMP - AIR TEMPERATURE.     DP    - DEWPOINT TEMPERATURE.
      RH  - RELATIVE HUMIDITY.   PRES  - PRESSURE.
      HI  - HEAT INDEX.          WCI   - WIND CHILL INDEX.

*  THESE STATIONS ARE NOT NWS OR FAA STATIONS AND ARE NOT UNDER
   NWS QUALITY CONTROL.

LAZ038-040-048-061>063-065>067-069-060000-
SOUTHEAST LOUISIANA

CITY           SKY/WX    TMP DP  RH WIND       PRES   REMARKS
N.O. AUDUBON   NOT AVBL
N.O. INTL ARPT CLOUDY    38  31  76 N28       30.32R WCI  26
N.O. LAKEFRONT CLOUDY    41  34  76 N25G35    30.33R
SLIDELL        CLOUDY    36  31  82 N18G26    30.32R WCI  26
BATON ROUGE    PTSUNNY   36  26  67 N12G23    30.40R WCI  28
BOOTHVILLE     CLOUDY    44  38  79 N15G37    30.25R
BELLE CHASSE   CLOUDY    40  31  70 N12G31    30.30R WCI  33
BOGALUSA*        N/A     36  30  81 N12G20    30.38R WCI  27
GALLIANO*      CLOUDY    42  36  78 N18G36    30.28R
NEW ROADS*     MOCLDY    36  24  62 N17G28    30.42R WCI  26
GONZALES*      CLOUDY    36  29  75 N15G23    30.36R WCI  27
HAMMOND*       CLOUDY    36  28  75 N18G28    30.39R WCI  25
HOUMA*         CLOUDY    37  32  81 N17G26    30.30R WCI  28
PORT FOURCHON* CLOUDY    45  37  76 N24G39    30.29R

$$

MSZ070-080>082-060000-
SOUTHERN MISSISSIPPI

CITY           SKY/WX    TMP DP  RH WIND       PRES   REMARKS
MCCOMB         PTSUNNY   33  23  66 N17G28    30.39R WCI  22
GULFPORT       CLOUDY    38  30  73 N22G32    30.29R WCI  27
BILOXI         CLOUDY    38  33  82 N18       30.27R WCI  29
PASCAGOULA     CLOUDY    38  31  76 N22G33    30.27R WCI  27
STENNIS ARPT*  CLOUDY    36  28  75 N16G28    30.31R WCI  26

$$

COASTAL OBSERVATIONS
LAKE AND NEARSHORE STATIONS

STATION/POSITION TIME  TEMP    WIND        PRES    WAVE
                       AIR SEA DIR/SP/G            HT/PER
                 (UTC) (F)     (DEG/KT/KT) (MB)    (FT/S)
PASCAGOULA       2300   41     360/ 17/ 28 1023.9
WAVELAND YACHT   2300   38 54  360/ 25/ 32 1025.9
GRAND ISLE       2300   44 64   10/ 23/ 33 1024.8
SOUTHWEST PASS   2300   47 45  360/ 26/ 30 1024.0
NEW CANAL        2300           10/ 22/ 28 1027.2
SHELL BEACH      2300   40 60  350/ 23/ 29 1025.3

OFFSHORE STATIONS

STATION/POSITION TIME  TEMP    WIND        PRES    WAVE
                       AIR SEA DIR/SP/G            HT/PER
                 (UTC) (F)     (DEG/KT/KT) (MB)    (FT/S)
64 S DAUPHIN ISL 2231   52 70  360/ 27/ 31 1022.2

$$



USA.gov is the U.S. government's official web portal to all federal, state and local government web resources and services.